Location: Newark
(47.7394°N, 8.0008°E)
Time: 00:20:07
(UTC+00:00)

N. Korean satellite - Pass Details

Date: 15 December 2019
Orbit: 454 x 507 km, 97.2° (Epoch: 21 January)

Event Time Altitude Azimuth Distance (km) Brightness Sun altitude
Rises 05:59:15 0° 5° (N) 2,537 10.0 -11.2°
Reaches altitude 10° 06:01:26 10° 356° (N) 1,644 9.0 -10.9°
Maximum altitude 06:04:39 35° 290° (WNW) 776 7.1 -10.4°
Drops below altitude 10° 06:07:50 10° 223° (SW) 1,608 9.0 -9.9°
Sets 06:09:57 0° 214° (SW) 2,471 10.1 -9.6°
